SCP
0 0 0 0 0 0 0 0 0 0 0 0 0 0 0 0 -0 -0 -0 -0 -0 -0 -0 -0 -0 -0 -0 0 0 0 0 0 0 0 0 0 0 0 0 0 0 0 0 -0
0 0 0 0 0 0 0 0 0 0 -0 0 0 0 0 0 -0 -0 -0 -0 -0 -0 -0 -0 -0 -0 -0 0 0 0 -0 0 0 0 0 0 0 0 0 0 0 0 -0 0
0 0 0 0 0 0 0 0 0 0 0 0 0 0 0 0 -0 -0 -0 -0 -0 -0 -0 -0 -0 -0 -0 -0 0 0 -0 -0 0 0 0 0 0 0 0 0 0 0 0 0
0 0 0 0 0 0 0 0 0 0 0 0 0 0 0 0 0 -0 -0 -0 -0 -0 -0 -0 -0 -0 -0 -0 -0 0 -0 -0 0 0 0 0 0 0 0 0 0 0 0 0
0 0 0 0 0 0 0 0 0 0 0 0 -0 0 0 0 0 0 -0 -0 -0 -0 -0 -0 -0 -0 -0 -0 -0 -0 -0 -0 -0 0 0 0 0 0 0 0 0 0 0 0
0 0 0 0 0 0 0 0 0 0 0 0 0 0 0 0 0 0 0 -0 -0 -0 -0 -0 -0 -0 -0 -0 -0 -0 -0 -0 -0 -0 0 0 0 0 0 0 0 0 0 0
0 0 0 0 0 0 0 0 0 0 0 0 0 0 0 0 0 0 0 -0 -0 -0 -0 -0 -0 -0 -0 -0 -0 -0 -0 -0 -0 -0 -0 0 0 0 0 0 0 0 0 0
0 0 0 0 0 0 0 0 0 0 0 0 0 0 0 0 0 0 0 -0 -0 -0 -0 0 -0 -0 -0 -0 -0 -0 0 -0 -0 -0 -0 0 -0 -0 -0 -0 0 0 0 0
0 0 0 0 0 0 -0 0 0 0 0 0 0 0 0 0 0 0 0 -0 -0 0 0 0 -0 -0 -0 -0 -0 -0 0 0 -0 -0 -0 -0 -0 -0 0 0 0 0 0 0
0 0 0 0 0 0 0 0 0 0 0 0 0 0 0 0 0 0 0 0 -0 0 0 -0 -0 -0 0 -0 -0 -0 0 0 -0 -0 -0 -0 -0 -0 -0 0 0 0 0 -0
0 0 0 0 0 0 0 0 0 0 0 0 0 0 0 0 0 0 0 0 0 0 0 0 0 0 0 0 0 0 0 0 0 0 -0 -0 -0 -0 -0 -0 -0 -0 -0 -0
0 0 0 0 0 0 0 0 0 0 0 0 0 0 0 0 0 0 0 0 0 0 0 0 0 0 0 0 0 0 0 0 0 0 0 0 0 0 0 0 -0 -0 -0 -0
0 0 0 0 0 0 0 -0 0 0 0 0 0 0 0 0 0 0 0 0 0 0 0 0 0 0 0 0 0 0 0 0 0 0 0 0 0 0 0 0 0 -0 -0 -0
0 0 0 0 0 0 0 0 0 0 0 0 0 0 0 0 0 0 0 0 0 0 0 0 0 0 0 0 0 0 0 0 0 0 0 0 0 0 0 0 0 0 0 0
-0 -0 0 0 0 0 0 0 0 0 0 0 0 0 0 0 0 0 0 0 0 0 0 0 0 0 0 0 0 0 0 0 0 0 0 0 0 0 0 0 0 0 0 0
-0 -0 -0 0 0 0 0 0 0 0 0 0 0 0 0 0 0 0 0 0 0 0 0 0 0 0 0 0 0 0 0 0 0 0 0 0 0 0 0 0 0 0 0 0
0 -0 -0 0 0 0 0 0 0 0 0 0 0 0 0 0 0 0 0 0 0 0 0 0 0 0 0 0 0 0 0 0 0 0 0 0 0 0 0 0 0 0 0 0
0 0 0 -0 0 0 0 0 0 0 0 0 0 0 0 0 0 0 0 0 0 1 0 0 0 1 0 0 0 0 0 0 0 0 0 0 0 0 0 0 0 0 0 0
0 0 0 0 0 0 0 0 0 0 -0 0 0 0 0 0 0 0 0 0 0 1 1 0 0 1 1 0 0 0 0 0 0 0 0 0 0 0 0 0 0 0 0 0
0 0 0 0 -0 -0 0 0 0 0 -0 0 0 0 0 0 -0 0 1 1 1 1 1 1 1 1 1 0 0 0 0 0 0 0 0 0 0 0 0 0 0 0 0 0
0 0 0 0 0 0 -0 0 0 0 -0 -0 0 0 0 0 0 1 1 1 1 1 0 1 1 0 0 0 0 0 0 0 0 0 0 0 0 0 0 0 0 0 0 0
0 0 0 0 0 0 0 0 0 -0 -0 0 -0 0 0 0 1 1 2 1 0 0 0 0 0 0 0 0 0 0 0 0 0 0 0 0 0 0 0 0 0 0 0 0
0 0 0 0 0 0 0 0 0 -0 -0 -0 -0 -0 0 0 0 0 0 0 0 0 0 0 0 0 0 0 0 0 0 0 0 0 0 0 0 0 0 0 0 0 0 0
0 0 0 0 0 0 0 0 0 0 0 -1 -0 -0 0 0 0 0 0 0 0 0 0 0 0 0 0 0 0 0 0 0 0 0 0 0 0 0 0 0 0 0 0 0
-0 0 0 0 0 0 0 -0 -0 0 0 1 0 0 0 0 0 0 0 0 0 0 0 0 0 0 0 0 0 0 0 0 0 0 0 0 0 0 0 0 0 0 0 0
-0 -0 0 0 0 0 0 0 0 0 0 0 0 0 0 0 0 0 0 0 0 0 0 0 0 0 0 0 0 0 0 0 0 0 0 0 0 0 0 0 0 0 0 0
-0 -0 -0 0 0 0 0 0 0 0 0 0 0 0 0 0 0 0 0 0 0 0 0 0 0 0 0 0 0 0 0 0 0 0 0 0 0 0 0 0 0 0 0 0
Wind_Speed_500mb
51 40 21 43 43 43 34 19 28 18 18 24 24 21 28 70 71 68 70 69 68 65 58 51 46 43 37 26 34 28 28 20 16 15 23 27 21 19 23 27 32 29 26 28
37 40 45 30 56 45 37 27 13 26 26 17 29 45 36 59 67 66 70 76 70 65 59 57 53 47 43 34 39 32 31 26 16 24 26 22 22 18 23 25 25 19 24 29
43 39 25 28 34 46 39 25 27 23 13 8 10 25 30 52 71 72 74 79 73 70 63 59 58 49 47 41 42 37 33 30 18 32 30 28 27 26 25 21 20 18 17 19
24 29 37 18 21 36 35 30 17 17 27 17 15 33 62 60 74 77 82 81 77 74 65 59 57 55 47 48 43 38 37 33 22 35 33 31 31 30 27 23 17 13 28 30
18 32 6 19 29 47 35 23 30 19 25 28 49 33 21 39 61 75 79 76 76 77 69 63 60 59 54 54 46 41 40 39 28 31 38 29 35 35 34 28 19 14 23 29
5 17 37 19 14 20 35 29 21 22 21 19 26 16 10 46 42 73 71 71 73 79 74 69 65 63 60 58 52 47 38 45 35 23 38 33 37 34 33 36 26 18 18 22
9 8 11 22 12 17 19 16 17 45 33 24 14 21 22 37 45 67 70 72 68 78 78 74 71 67 64 63 60 50 39 44 42 33 38 35 40 38 30 34 34 24 16 20
6 6 8 15 8 12 11 16 39 49 61 50 49 39 30 32 22 62 72 70 72 80 79 78 75 71 66 67 60 51 46 48 48 41 37 38 39 41 33 37 38 35 29 19
11 7 2 22 7 27 31 34 36 25 46 64 58 51 36 26 38 64 73 73 78 80 80 82 79 73 67 62 61 56 50 54 52 48 41 40 40 43 41 41 41 41 37 32
16 21 35 37 37 32 21 36 33 44 34 66 65 55 44 34 40 46 75 73 79 82 85 84 82 75 61 60 64 61 55 57 58 54 48 42 37 41 43 46 52 47 44 42
10 18 53 60 77 68 29 20 16 20 53 70 65 61 55 48 46 55 75 66 69 78 83 79 81 76 66 61 66 66 59 59 62 61 55 48 42 41 41 46 54 53 50 44
8 45 15 42 72 65 29 40 37 28 15 31 53 59 61 63 54 64 63 59 62 70 72 74 73 71 67 66 68 72 67 65 63 66 62 54 44 44 38 41 43 53 37 40
15 54 43 51 44 59 43 41 25 21 47 29 8 39 56 64 62 67 57 59 63 63 64 64 64 67 67 66 68 73 76 74 68 67 68 62 53 47 44 38 42 37 47 42
33 35 53 46 65 65 47 26 23 11 35 47 36 18 38 54 66 61 49 60 61 61 60 62 62 60 61 67 69 71 79 74 76 73 71 68 59 51 50 48 55 49 56 56
35 24 38 52 63 53 45 20 15 20 33 63 66 18 18 47 66 60 54 51 71 66 59 58 61 58 62 64 68 75 75 78 77 75 71 66 61 54 52 54 55 58 59 66
23 22 33 45 52 50 52 35 23 18 40 51 30 9 24 45 62 54 49 41 72 69 60 61 59 59 66 67 68 75 76 81 83 81 77 68 64 63 59 61 59 60 68 72
35 22 27 42 61 57 62 42 32 33 57 42 32 35 10 56 56 52 46 35 41 60 56 51 54 57 59 65 67 71 79 79 86 87 84 81 73 70 71 64 69 68 65 63
57 55 56 28 55 53 51 55 46 46 58 50 33 25 22 12 37 35 38 25 36 44 43 40 31 45 62 64 63 70 75 78 82 91 89 80 82 76 76 77 72 73 72 69
53 56 51 43 45 54 52 53 52 42 44 44 30 25 21 7 13 14 33 22 34 41 35 36 38 30 36 67 68 70 76 76 69 81 90 87 71 77 76 76 79 75 75 76
38 53 52 42 53 43 40 38 55 53 42 36 31 30 30 32 51 44 31 30 43 45 43 43 41 35 32 28 52 69 67 72 67 65 77 88 84 81 61 81 74 81 80 83
32 38 58 42 33 34 57 39 49 53 56 42 37 45 37 33 20 29 37 45 54 48 46 47 39 38 38 35 32 43 49 56 64 58 57 69 76 82 66 82 63 77 76 85
36 25 24 45 41 44 46 42 55 60 43 48 48 49 40 31 23 33 36 48 48 42 39 38 35 32 31 36 41 46 50 40 46 54 54 55 58 64 76 63 75 66 72 72
34 25 22 22 24 19 23 35 52 59 46 31 42 42 27 8 31 53 49 36 34 30 28 35 39 38 36 40 38 35 35 41 46 36 49 55 54 45 58 66 61 72 65 71
15 35 35 27 34 41 37 35 35 43 50 42 26 19 18 24 32 37 38 31 36 37 33 30 30 24 22 27 34 34 29 28 34 43 41 50 50 47 49 55 55 63 67 67
37 18 18 30 40 43 48 46 28 27 33 41 32 20 24 36 41 38 34 24 24 30 32 33 31 32 28 21 22 30 34 31 30 30 35 39 42 44 46 51 56 61 66 70
62 40 33 32 21 18 13 15 24 9 52 55 51 49 49 41 35 25 24 29 16 20 27 28 27 28 24 18 16 15 15 16 20 23 28 27 30 37 42 50 61 66 68 71
69 64 58 54 56 45 37 38 48 23 29 68 75 63 58 51 49 41 40 42 35 28 27 24 20 17 19 17 12 11 12 11 15 21 26 22 24 25 28 33 42 52 59 64
Wind_Direction_500mb
225 247 246 196 188 188 202 173 187 195 169 179 173 174 174 163 167 169 175 176 180 181 181 187 190 195 199 185 193 185 194 191 171 176 143 114 116 113 109 97 93 97 106 118
222 223 241 258 190 188 198 194 183 178 234 176 192 186 171 160 166 173 177 179 182 183 186 188 191 192 199 188 194 186 197 202 187 175 152 140 138 128 124 109 131 120 95 94
215 222 238 239 218 193 202 196 184 196 181 206 189 185 178 167 170 175 179 182 184 184 190 192 193 192 196 193 194 187 194 201 197 172 165 166 156 145 137 136 133 118 127 117
200 205 229 233 205 193 210 198 199 177 181 201 201 190 194 188 175 175 178 184 189 187 191 195 196 195 194 195 197 191 191 201 204 174 182 184 172 162 154 158 155 122 135 137
190 195 168 258 183 191 212 216 195 184 181 199 220 184 191 190 189 181 181 185 194 192 191 193 194 192 190 194 198 196 191 205 203 186 188 187 177 178 174 167 165 144 147 147
331 163 209 203 222 168 193 205 182 168 193 174 163 181 229 192 193 184 184 185 190 192 191 192 194 193 190 193 198 198 193 205 204 195 190 189 188 196 191 188 183 166 142 158
229 159 240 185 217 177 190 220 181 185 185 169 163 184 200 197 192 184 184 184 186 189 193 198 194 193 192 193 199 203 194 200 204 197 197 204 195 203 202 194 182 178 177 164
164 109 195 142 290 216 194 168 171 185 188 181 188 189 194 203 233 186 180 180 185 188 194 198 196 194 195 197 200 200 196 198 205 201 200 202 205 208 211 193 182 180 204 207
27 221 210 69 40 321 254 191 161 160 190 190 186 186 189 193 190 179 178 180 186 189 195 196 198 200 199 202 194 198 196 201 205 203 206 207 208 209 209 199 188 192 198 214
345 359 340 345 7 333 191 159 176 181 200 192 182 181 188 196 193 185 181 178 185 190 193 195 200 203 208 200 196 196 196 203 205 205 205 207 213 217 215 207 200 200 203 211
292 326 344 8 353 343 19 46 117 156 200 194 192 189 195 202 185 170 173 176 183 190 194 197 201 203 206 204 196 195 196 206 209 208 210 213 222 224 226 223 213 208 211 217
285 331 336 307 329 336 337 2 5 20 134 176 194 197 193 199 192 172 172 177 183 188 192 198 201 205 206 207 203 197 197 207 210 208 210 216 220 217 228 231 218 214 217 212
292 294 301 317 346 355 1 17 0 17 12 331 174 184 189 190 194 181 178 179 176 186 194 197 203 207 210 210 206 202 201 206 211 212 211 214 217 223 220 213 208 210 209 205
264 307 317 319 323 332 345 17 74 104 334 319 288 191 173 164 170 168 170 186 188 186 193 200 204 209 213 211 208 207 205 212 213 215 214 217 222 227 225 217 207 208 205 204
267 308 300 291 308 333 348 360 19 46 355 332 259 267 177 171 170 172 176 182 185 185 186 193 205 213 214 211 208 208 208 210 215 218 219 219 223 227 225 223 219 216 211 209
260 256 285 294 294 313 321 312 334 298 299 286 328 148 183 169 166 167 176 192 185 187 189 195 202 214 216 212 211 209 212 215 214 215 218 217 222 226 226 224 226 226 223 217
287 203 235 260 270 286 304 296 301 312 291 321 337 350 49 163 163 157 166 171 178 184 190 197 202 208 212 214 213 212 213 219 218 217 217 219 222 224 226 226 224 229 235 232
263 268 235 219 252 266 279 314 275 273 279 306 326 318 354 348 165 159 168 153 164 167 178 179 179 205 209 213 215 213 215 219 221 218 220 220 223 226 227 228 229 230 233 237
262 260 276 229 240 260 265 273 307 276 271 311 332 328 332 275 112 174 166 184 188 180 175 193 210 207 192 208 213 214 214 217 222 222 220 219 224 228 229 230 228 227 231 239
269 257 258 239 223 227 254 257 279 296 304 309 331 330 305 6 163 212 185 194 192 192 186 194 205 211 204 187 204 211 216 215 220 226 224 223 222 226 228 232 233 232 230 235
249 259 242 239 222 216 232 226 263 273 282 290 319 314 300 281 273 186 195 194 184 195 203 211 226 231 230 225 213 206 208 217 221 224 231 230 231 228 230 232 235 237 238 234
245 258 266 236 212 218 223 228 229 255 268 282 301 311 309 286 203 184 185 192 170 177 192 203 214 221 221 225 227 228 220 211 219 224 229 238 234 232 231 232 240 239 243 239
239 235 250 240 226 238 241 249 251 265 271 263 280 294 317 262 162 174 165 165 179 185 207 218 228 234 236 236 231 229 226 228 222 223 232 233 235 233 230 231 237 233 235 230
208 222 227 232 241 247 251 262 261 264 270 260 261 274 238 172 135 125 135 154 182 189 195 205 221 242 242 234 224 214 220 229 231 232 238 224 222 219 223 230 232 230 229 227
65 129 188 228 237 242 247 256 275 285 246 211 196 177 192 168 166 130 122 94 118 131 146 138 135 134 128 145 143 158 167 174 185 183 187 196 203 211 216 222 226 225 224 228
47 70 80 79 118 116 159 162 188 227 172 151 144 139 126 135 152 162 142 144 125 142 142 144 138 144 142 159 173 178 185 192 211 215 223 220 221 226 224 224 225 226 229 230
43 52 65 74 74 80 90 140 160 33 53 129 122 124 122 120 114 118 127 136 166 165 163 166 155 151 153 160 170 197 206 198 210 221 235 247 250 245 241 238 233 229 228 227
Wind_Speed_850mb
51 40 21 43 43 43 34 19 28 18 18 24 24 21 28 70 71 68 70 69 68 65 58 51 46 43 37 26 34 28 28 20 16 15 23 27 21 19 23 27 32 29 26 28
37 40 45 30 56 45 37 27 13 26 26 17 29 45 36 59 67 66 70 76 70 65 59 57 53 47 43 34 39 32 31 26 16 24 26 22 22 18 23 25 25 19 24 29
43 39 25 28 34 46 39 25 27 23 13 8 10 25 30 52 71 72 74 79 73 70 63 59 58 49 47 41 42 37 33 30 18 32 30 28 27 26 25 21 20 18 17 19
24 29 37 18 21 36 35 30 17 17 27 17 15 33 62 60 74 77 82 81 77 74 65 59 57 55 47 48 43 38 37 33 22 35 33 31 31 30 27 23 17 13 28 30
18 32 6 19 29 47 35 23 30 19 25 28 49 33 21 39 61 75 79 76 76 77 69 63 60 59 54 54 46 41 40 39 28 31 38 29 35 35 34 28 19 14 23 29
5 17 37 19 14 20 35 29 21 22 21 19 26 16 10 46 42 73 71 71 73 79 74 69 65 63 60 58 52 47 38 45 35 23 38 33 37 34 33 36 26 18 18 22
9 8 11 22 12 17 19 16 17 45 33 24 14 21 22 37 45 67 70 72 68 78 78 74 71 67 64 63 60 50 39 44 42 33 38 35 40 38 30 34 34 24 16 20
6 6 8 15 8 12 11 16 39 49 61 50 49 39 30 32 22 62 72 70 72 80 79 78 75 71 66 67 60 51 46 48 48 41 37 38 39 41 33 37 38 35 29 19
11 7 2 22 7 27 31 34 36 25 46 64 58 51 36 26 38 64 73 73 78 80 80 82 79 73 67 62 61 56 50 54 52 48 41 40 40 43 41 41 41 41 37 32
16 21 35 37 37 32 21 36 33 44 34 66 65 55 44 34 40 46 75 73 79 82 85 84 82 75 61 60 64 61 55 57 58 54 48 42 37 41 43 46 52 47 44 42
10 18 53 60 77 68 29 20 16 20 53 70 65 61 55 48 46 55 75 66 69 78 83 79 81 76 66 61 66 66 59 59 62 61 55 48 42 41 41 46 54 53 50 44
8 45 15 42 72 65 29 40 37 28 15 31 53 59 61 63 54 64 63 59 62 70 72 74 73 71 67 66 68 72 67 65 63 66 62 54 44 44 38 41 43 53 37 40
15 54 43 51 44 59 43 41 25 21 47 29 8 39 56 64 62 67 57 59 63 63 64 64 64 67 67 66 68 73 76 74 68 67 68 62 53 47 44 38 42 37 47 42
33 35 53 46 65 65 47 26 23 11 35 47 36 18 38 54 66 61 49 60 61 61 60 62 62 60 61 67 69 71 79 74 76 73 71 68 59 51 50 48 55 49 56 56
35 24 38 52 63 53 45 20 15 20 33 63 66 18 18 47 66 60 54 51 71 66 59 58 61 58 62 64 68 75 75 78 77 75 71 66 61 54 52 54 55 58 59 66
23 22 33 45 52 50 52 35 23 18 40 51 30 9 24 45 62 54 49 41 72 69 60 61 59 59 66 67 68 75 76 81 83 81 77 68 64 63 59 61 59 60 68 72
35 22 27 42 61 57 62 42 32 33 57 42 32 35 10 56 56 52 46 35 41 60 56 51 54 57 59 65 67 71 79 79 86 87 84 81 73 70 71 64 69 68 65 63
57 55 56 28 55 53 51 55 46 46 58 50 33 25 22 12 37 35 38 25 36 44 43 40 31 45 62 64 63 70 75 78 82 91 89 80 82 76 76 77 72 73 72 69
53 56 51 43 45 54 52 53 52 42 44 44 30 25 21 7 13 14 33 22 34 41 35 36 38 30 36 67 68 70 76 76 69 81 90 87 71 77 76 76 79 75 75 76
38 53 52 42 53 43 40 38 55 53 42 36 31 30 30 32 51 44 31 30 43 45 43 43 41 35 32 28 52 69 67 72 67 65 77 88 84 81 61 81 74 81 80 83
32 38 58 42 33 34 57 39 49 53 56 42 37 45 37 33 20 29 37 45 54 48 46 47 39 38 38 35 32 43 49 56 64 58 57 69 76 82 66 82 63 77 76 85
36 25 24 45 41 44 46 42 55 60 43 48 48 49 40 31 23 33 36 48 48 42 39 38 35 32 31 36 41 46 50 40 46 54 54 55 58 64 76 63 75 66 72 72
34 25 22 22 24 19 23 35 52 59 46 31 42 42 27 8 31 53 49 36 34 30 28 35 39 38 36 40 38 35 35 41 46 36 49 55 54 45 58 66 61 72 65 71
15 35 35 27 34 41 37 35 35 43 50 42 26 19 18 24 32 37 38 31 36 37 33 30 30 24 22 27 34 34 29 28 34 43 41 50 50 47 49 55 55 63 67 67
37 18 18 30 40 43 48 46 28 27 33 41 32 20 24 36 41 38 34 24 24 30 32 33 31 32 28 21 22 30 34 31 30 30 35 39 42 44 46 51 56 61 66 70
62 40 33 32 21 18 13 15 24 9 52 55 51 49 49 41 35 25 24 29 16 20 27 28 27 28 24 18 16 15 15 16 20 23 28 27 30 37 42 50 61 66 68 71
69 64 58 54 56 45 37 38 48 23 29 68 75 63 58 51 49 41 40 42 35 28 27 24 20 17 19 17 12 11 12 11 15 21 26 22 24 25 28 33 42 52 59 64
Wind_Direction_850mb
225 247 246 196 188 188 202 173 187 195 169 179 173 174 174 163 167 169 175 176 180 181 181 187 190 195 199 185 193 185 194 191 171 176 143 114 116 113 109 97 93 97 106 118
222 223 241 258 190 188 198 194 183 178 234 176 192 186 171 160 166 173 177 179 182 183 186 188 191 192 199 188 194 186 197 202 187 175 152 140 138 128 124 109 131 120 95 94
215 222 238 239 218 193 202 196 184 196 181 206 189 185 178 167 170 175 179 182 184 184 190 192 193 192 196 193 194 187 194 201 197 172 165 166 156 145 137 136 133 118 127 117
200 205 229 233 205 193 210 198 199 177 181 201 201 190 194 188 175 175 178 184 189 187 191 195 196 195 194 195 197 191 191 201 204 174 182 184 172 162 154 158 155 122 135 137
190 195 168 258 183 191 212 216 195 184 181 199 220 184 191 190 189 181 181 185 194 192 191 193 194 192 190 194 198 196 191 205 203 186 188 187 177 178 174 167 165 144 147 147
331 163 209 203 222 168 193 205 182 168 193 174 163 181 229 192 193 184 184 185 190 192 191 192 194 193 190 193 198 198 193 205 204 195 190 189 188 196 191 188 183 166 142 158
229 159 240 185 217 177 190 220 181 185 185 169 163 184 200 197 192 184 184 184 186 189 193 198 194 193 192 193 199 203 194 200 204 197 197 204 195 203 202 194 182 178 177 164
164 109 195 142 290 216 194 168 171 185 188 181 188 189 194 203 233 186 180 180 185 188 194 198 196 194 195 197 200 200 196 198 205 201 200 202 205 208 211 193 182 180 204 207
27 221 210 69 40 321 254 191 161 160 190 190 186 186 189 193 190 179 178 180 186 189 195 196 198 200 199 202 194 198 196 201 205 203 206 207 208 209 209 199 188 192 198 214
345 359 340 345 7 333 191 159 176 181 200 192 182 181 188 196 193 185 181 178 185 190 193 195 200 203 208 200 196 196 196 203 205 205 205 207 213 217 215 207 200 200 203 211
292 326 344 8 353 343 19 46 117 156 200 194 192 189 195 202 185 170 173 176 183 190 194 197 201 203 206 204 196 195 196 206 209 208 210 213 222 224 226 223 213 208 211 217
285 331 336 307 329 336 337 2 5 20 134 176 194 197 193 199 192 172 172 177 183 188 192 198 201 205 206 207 203 197 197 207 210 208 210 216 220 217 228 231 218 214 217 212
292 294 301 317 346 355 1 17 0 17 12 331 174 184 189 190 194 181 178 179 176 186 194 197 203 207 210 210 206 202 201 206 211 212 211 214 217 223 220 213 208 210 209 205
264 307 317 319 323 332 345 17 74 104 334 319 288 191 173 164 170 168 170 186 188 186 193 200 204 209 213 211 208 207 205 212 213 215 214 217 222 227 225 217 207 208 205 204
267 308 300 291 308 333 348 360 19 46 355 332 259 267 177 171 170 172 176 182 185 185 186 193 205 213 214 211 208 208 208 210 215 218 219 219 223 227 225 223 219 216 211 209
260 256 285 294 294 313 321 312 334 298 299 286 328 148 183 169 166 167 176 192 185 187 189 195 202 214 216 212 211 209 212 215 214 215 218 217 222 226 226 224 226 226 223 217
287 203 235 260 270 286 304 296 301 312 291 321 337 350 49 163 163 157 166 171 178 184 190 197 202 208 212 214 213 212 213 219 218 217 217 219 222 224 226 226 224 229 235 232
263 268 235 219 252 266 279 314 275 273 279 306 326 318 354 348 165 159 168 153 164 167 178 179 179 205 209 213 215 213 215 219 221 218 220 220 223 226 227 228 229 230 233 237
262 260 276 229 240 260 265 273 307 276 271 311 332 328 332 275 112 174 166 184 188 180 175 193 210 207 192 208 213 214 214 217 222 222 220 219 224 228 229 230 228 227 231 239
269 257 258 239 223 227 254 257 279 296 304 309 331 330 305 6 163 212 185 194 192 192 186 194 205 211 204 187 204 211 216 215 220 226 224 223 222 226 228 232 233 232 230 235
249 259 242 239 222 216 232 226 263 273 282 290 319 314 300 281 273 186 195 194 184 195 203 211 226 231 230 225 213 206 208 217 221 224 231 230 231 228 230 232 235 237 238 234
245 258 266 236 212 218 223 228 229 255 268 282 301 311 309 286 203 184 185 192 170 177 192 203 214 221 221 225 227 228 220 211 219 224 229 238 234 232 231 232 240 239 243 239
239 235 250 240 226 238 241 249 251 265 271 263 280 294 317 262 162 174 165 165 179 185 207 218 228 234 236 236 231 229 226 228 222 223 232 233 235 233 230 231 237 233 235 230
208 222 227 232 241 247 251 262 261 264 270 260 261 274 238 172 135 125 135 154 182 189 195 205 221 242 242 234 224 214 220 229 231 232 238 224 222 219 223 230 232 230 229 227
65 129 188 228 237 242 247 256 275 285 246 211 196 177 192 168 166 130 122 94 118 131 146 138 135 134 128 145 143 158 167 174 185 183 187 196 203 211 216 222 226 225 224 228
47 70 80 79 118 116 159 162 188 227 172 151 144 139 126 135 152 162 142 144 125 142 142 144 138 144 142 159 173 178 185 192 211 215 223 220 221 226 224 224 225 226 229 230
43 52 65 74 74 80 90 140 160 33 53 129 122 124 122 120 114 118 127 136 166 165 163 166 155 151 153 160 170 197 206 198 210 221 235 247 250 245 241 238 233 229 228 227